{"data":{"norad_id":52569,"intl_designator":"2022-051AN","name":"STARLINK-3927","alt_names":[],"object_type":"PAYLOAD","status":"ACTIVE","operator":null,"country":"US","launch_date":"2022-05-13","launch_site_code":"AFWTR","launch_vehicle":null,"mission":null,"orbit_class":"UNKNOWN","rcs_meters":null,"size_class":null,"mass_kg":null,"dimensions":null,"purposes":["comms"],"wikipedia_slug":null,"has_3d_model":false,"image_url":null,"decayed_at":null,"tle_current":{"epoch":"2026-05-25T03:23:03.353856Z","epoch_age_seconds":66166,"freshness":"FRESH","line1":"1 52569U 22051AN  26145.14101104 -.00000245  00000+0  27150-5 0  9998","line2":"2 52569  53.2135 135.9190 0001226  78.3440 281.7689 15.08834989223129","mean_motion":15.08834989,"eccentricity":0.0001226,"inclination_deg":53.2135,"raan_deg":135.919,"arg_perigee_deg":78.344,"mean_anomaly_deg":281.7689,"bstar":2.715e-6,"rev_number":22312,"period_min":95.437871635942,"perigee_km":538.9105716153,"apogee_km":540.60683964232,"semimajor_km":6917.8957056288,"source":"CELESTRAK","updated_at":"2026-05-25T13:38:17.191740Z"}}}